Regional Weather Roundup
Issued by NWS

Home | Current Version | Previous Version | Text Only | Print | Product List | Glossary Off
Versions: 1 2 3 4 5 6 7 8 9 10 11 12 13 14 15 16 17 18 19 20 21 22 23 24 25 26 27 28 29 30 31 32 33 34 35 36 37 38 39 40 41 42 43 44 45 46 47 48 49 50

000
ASUS43 KBIS 260910
RWRND

NORTH DAKOTA REGIONAL WEATHER ROUNDUP
NATIONAL WEATHER SERVICE BISMARCK ND
300 AM CST WED NOV 26 2014

NOTE: "FAIR" INDICATES FEW OR NO CLOUDS BELOW 12,000 FEET WITH NO
SIGNIFICANT WEATHER AND/OR OBSTRUCTIONS TO VISIBILITY.


NDZ001>003-009>011-017-261000-
NORTHWEST NORTH DAKOTA

CITY           SKY/WX    TMP DP  RH WIND       PRES   REMARKS
WILLISTON      FLURRIES  16  10  77 CALM      30.24S
MINOT          LGT SNOW   5   0  79 NW7       30.26R WCI  -7
MINOT AFB      FLURRIES   5   2  87 NW6       30.27R WCI  -5
$$

NDZ018>021-031>035-040>046-261000-
SOUTHWEST NORTH DAKOTA

CITY           SKY/WX    TMP DP  RH WIND       PRES   REMARKS
BISMARCK       CLOUDY    13   7  77 N12       30.24R WCI  -1
DICKINSON      CLOUDY    19  15  84 N6        30.17R WCI  11
GARRISON         N/A      7   3  84 N7        30.24R WCI  -5
HETTINGER ARPT CLOUDY    21  18  88 NW13      30.18R WCI   9
$$

NDZ004>008-012>016-024-026-027-054-261000-
NORTHEAST NORTH DAKOTA

CITY           SKY/WX    TMP DP  RH WIND       PRES   REMARKS
GRAND FORKS    PTCLDY     4  -1  80 N22       30.26R WCI -18
GRND FRKS AFB  PTCLDY     3  -4  74 N15       30.26R WCI -16
DEVILS LAKE    CLOUDY     3  -8  60 N12       30.21S WCI -13
$$

NDZ022-023-025-028>030-036>039-047>053-261000-
SOUTHEAST NORTH DAKOTA

CITY           SKY/WX    TMP DP  RH WIND       PRES   REMARKS
FARGO          CLOUDY    15   9  76 N20       30.17R WCI  -2
JAMESTOWN      CLOUDY     9   3  77 N21       30.17R HAZE    WCI -11
$$



USA.gov is the U.S. government's official web portal to all federal, state and local government web resources and services.